Home   Weather   Bucharest   Past weeks
Flag for Romania

Past Weather in Bucharest, Romania — Yesterday and Last 2 Weeks

Now
34 °F

Clear.


Feels Like: 34 °F
Forecast: 54 / 34 °F
Wind: 2 mph from West

Location: Bucharest / Imh

Current Time: Feb 17, 2019 at 3:55:24 am

Latest Report: Feb 17, 2019 at 2:30 am


Visibility: 4 mi

Pressure: 30.36 "Hg

Humidity: 87%

Dew Point: 30 °F

Location of BucharestLocation

Past Weather in Bucharest — Graph

°F

Bucharest Temperature Yesterday

Maximum temperature yesterday: 50 °F (at 2:00 pm)
Minimum temperature yesterday: 30 °F (at 12:00 am)
Average temperature yesterday: 40 °F

High & Low Weather Summary for the Past Weeks

 TemperatureHumidityPressure
High66 °F (Feb 4, 4:00 pm)100% (Feb 2, 2:30 am)30.48 "Hg (Feb 2, 2:30 am)
Low25 °F (Feb 8, 7:00 am)37% (Feb 13, 3:00 pm)29.62 "Hg (Feb 12, 1:30 am)
Average39 °F75%30.16 "Hg
* Reported Feb 2 2:00 am — Feb 17 2:30 am, Bucharest. Weather by CustomWeather, © 2019

Note: Actual official high and low records may vary slightly from our data, if they occured in-between our weather recording intervals... More about our weather records

Advertising

Bucharest Weather History for the Previous 24 Hours

Scroll right to see more
 ConditionsComfort  
Time TempWeatherWind HumidityBarometerVisibility
2:30 am
Sun, Feb 17
34 °FClear.2 mph87%30.36 "Hg4 mi
2:00 am34 °FClear.2 mph87%30.36 "Hg4 mi
1:30 am34 °FClear.2 mph87%30.36 "Hg4 mi
1:00 am36 °FClear.2 mph81%30.36 "Hg4 mi
12:30 am36 °FClear.2 mph81%30.36 "Hg4 mi
12:00 am36 °FClear.2 mph81%30.36 "Hg4 mi
11:30 pm
Sat, Feb 16
37 °FClear.3 mph75%30.36 "Hg4 mi
11:00 pm37 °FClear.3 mph81%30.36 "Hg4 mi
10:30 pm39 °FClear.3 mph75%30.36 "Hg10 mi
10:00 pm41 °FClear.2 mph70%30.36 "Hg10 mi
9:30 pm41 °FClear.2 mph70%30.36 "Hg10 mi
9:00 pm41 °FClear.1 mph70%30.36 "Hg10 mi
8:30 pm43 °FClear.3 mph66%30.36 "Hg10 mi
8:00 pm43 °FPassing clouds.3 mph66%30.36 "HgN/A
7:30 pm43 °FClear.3 mph66%30.36 "Hg10 mi
7:00 pm45 °FClear.5 mph61%30.36 "Hg10 mi
6:30 pm45 °FClear.5 mph57%30.36 "Hg10 mi
6:00 pm46 °FPassing clouds.6 mph53%30.36 "HgN/A
5:30 pm48 °FPassing clouds.7 mph50%30.36 "HgN/A
5:00 pm48 °FPassing clouds.8 mph50%30.36 "HgN/A
4:30 pm50 °FSunny.8 mph47%30.36 "Hg10 mi
4:00 pm50 °FPassing clouds.8 mph47%30.39 "HgN/A
3:30 pm50 °FPassing clouds.8 mph43%30.39 "HgN/A
3:00 pm50 °FPassing clouds.8 mph43%30.39 "HgN/A
2:30 pm48 °FPassing clouds.7 mph46%30.39 "HgN/A
2:00 pm50 °FPassing clouds.9 mph47%30.39 "HgN/A
1:30 pm48 °FPassing clouds.6 mph46%30.42 "HgN/A
1:00 pm48 °FPassing clouds.6 mph43%30.42 "HgN/A
12:30 pm46 °FSunny.2 mph50%30.42 "Hg10 mi
12:00 pm46 °FPassing clouds.6 mph50%30.45 "HgN/A
11:30 am45 °FPassing clouds.5 mph53%30.45 "HgN/A
11:00 am43 °FPassing clouds.8 mph61%30.45 "HgN/A
10:30 am41 °FPassing clouds.5 mph61%30.45 "HgN/A
10:00 am39 °FPassing clouds.5 mph70%30.45 "HgN/A
9:30 am37 °FPassing clouds.5 mph75%30.45 "HgN/A
8:30 am34 °FClear.3 mph93%30.45 "Hg5 mi
8:00 am32 °FClear.2 mph93%30.45 "Hg4 mi
7:30 am32 °FClear.2 mph93%30.45 "Hg4 mi
7:00 am32 °FPassing clouds.3 mph93%30.45 "Hg4 mi
6:30 am32 °FPassing clouds.5 mph100%30.42 "Hg4 mi
6:00 am34 °FClear.7 mph93%30.42 "Hg4 mi
5:30 am34 °FFog.7 mph93%30.45 "Hg3 mi
5:00 am34 °FFog.5 mph93%30.45 "Hg4 mi
4:30 am34 °FPassing clouds.5 mph93%30.45 "Hg4 mi
4:00 am34 °FPassing clouds.3 mph87%30.45 "Hg4 mi
3:30 am32 °FPassing clouds.2 mph93%30.45 "Hg4 mi
3:00 am32 °FPartly cloudy.1 mph93%30.45 "Hg4 mi
Weather by CustomWeather, © 2019

See weather overview